Weather in Ust-Talovka

Russia / Altai Krai     51°29′16″N   82°17′15″E
temp.,
°C
wind,
m/s
gust,
m/s
humid.,
%
clouds,
%
prec.,
mm/h
press.,
hPa
HPBL,
m
8 august, mon
mon801:00+15ese115531 0.0 100711
04:00+14e116047 0.0 100711
07:00+14ese22577 0.0 100715
10:00+23nne2332100 0.0 1008563
13:00+27n3324100 0.0 10071947
16:00+29nnw432198 0.0 10063134
19:00+27n4422100 0.0 10062291
22:00+19nw2245100 0.0 100713
9 august, tue
tue901:00+17e115399 0.0 100711
04:00+15ese116299 0.0 100711
07:00+16se2257100 0.0 100819
10:00+25ne233496 0.0 1007546
13:00+29ne4326100 0.0 10062795
16:00+24nw1242100 0.2 100720
19:00+27ne54275 0.2 10061277
22:00+20ene23455 0.0 100719
10 august, wed
wed1001:00+18ese22545 0.0 100721
04:00+16e22640 0.0 100711
07:00+16e22620 0.0 100727
10:00+26ene57331 0.0 1006684
13:00+31ne54225 0.0 10052461
16:00+33nne441838 0.0 10043563
19:00+29ne462497 0.0 1004480
22:00+18wsw127994 1.0 100721
11 august, thu
thu1101:00+17e33802 1.1 100544
04:00+15se118210 0.1 100511
07:00+16se11790 0.4 100612
10:00+24ssw58390 0.0 1006870
13:00+29sw66270 0.0 10062149
16:00+30w652757 0.0 10063524
19:00+28w4428100 0.0 1005908
22:00+18wnw387397 0.3 1008155
12 august, fri
fri1201:00+16se358696 2.2 100996
04:00+15nne229299 0.1 100921
07:00+15ese229015 0.1 101021
10:00+21nne33633 0.0 1011486
13:00+27nne56390 0.0 10101473
16:00+30nne763253 0.0 10092787
19:00+28nne663388 0.0 10081973
22:00+21ne411492 0.0 1010200